Weather reports worldwide

Advertisment
Writtle, United Kingdom (99127): temperature & dewpoint: 18.08.2019 06:00:00 - 24.08.2019 06:00:00 (BST)Writtle, United Kingdom (99127): temperature -20cm: 18.08.2019 06:00:00 - 24.08.2019 06:00:00 (BST)Writtle, United Kingdom (99127): precipitation: 18.08.2019 06:00:00 - 24.08.2019 06:00:00 (BST)
Date & Time tt [°C] td [°C] tt -20cm [°C] rr [mm]
24.08.2019 06:00:00 9,1 8,7 - 0,0
24.08.2019 05:00:00 9,9 9,4 - 0,0
24.08.2019 04:00:00 10,4 9,9 - 0,0
24.08.2019 03:00:00 11,1 10,5 - 0,0
24.08.2019 02:00:00 12,7 12,2 - 0,0
24.08.2019 01:00:00 13,5 12,8 - 0,0
24.08.2019 00:00:00 14,4 13,3 - 0,0
23.08.2019 23:00:00 14,9 12,1 - 0,0
23.08.2019 22:00:00 16,2 11,1 - 0,0
23.08.2019 21:00:00 18,3 11,3 - 0,0
23.08.2019 20:00:00 20,3 11,2 - 0,0
23.08.2019 19:00:00 21,9 13,3 - 0,0
23.08.2019 18:00:00 24,4 14,1 - 0,0
23.08.2019 17:00:00 24,9 14,2 - 0,0
23.08.2019 16:00:00 25,9 13,2 - 0,0
23.08.2019 15:00:00 26,0 13,6 - 0,0
23.08.2019 14:00:00 25,7 13,8 - 0,0
23.08.2019 13:00:00 25,1 14,0 - 0,0
23.08.2019 12:00:00 24,1 14,1 - 0,0
23.08.2019 11:00:00 22,7 14,4 - 0,0
23.08.2019 10:00:00 20,9 15,5 17,2 0,0
23.08.2019 09:00:00 17,8 14,8 - 0,0
23.08.2019 08:00:00 14,8 14,1 - 0,0
23.08.2019 07:00:00 11,8 11,5 - 0,0
23.08.2019 06:00:00 10,8 10,3 - 0,0
23.08.2019 05:00:00 11,4 10,8 - 0,0
23.08.2019 04:00:00 12,2 11,5 - 0,0
23.08.2019 03:00:00 12,7 12,1 - 0,0
23.08.2019 02:00:00 13,1 12,0 - 0,0
23.08.2019 01:00:00 13,8 12,3 - 0,0
23.08.2019 00:00:00 14,7 13,0 - 0,0
22.08.2019 23:00:00 14,4 11,5 - 0,0
22.08.2019 22:00:00 15,9 12,3 - 0,0
22.08.2019 21:00:00 16,8 11,9 - 0,0
22.08.2019 20:00:00 19,8 11,7 - 0,0
22.08.2019 19:00:00 22,0 11,9 - 0,0
22.08.2019 18:00:00 22,8 11,7 - 0,0
22.08.2019 17:00:00 23,9 12,0 - 0,0
22.08.2019 16:00:00 23,2 11,0 - 0,0
22.08.2019 15:00:00 24,7 11,9 - 0,0
22.08.2019 14:00:00 24,0 11,0 - 0,0
22.08.2019 13:00:00 23,7 11,5 - 0,0
22.08.2019 12:00:00 22,0 10,4 - 0,0
22.08.2019 11:00:00 21,1 9,8 - 0,0
22.08.2019 10:00:00 19,2 10,9 16,9 0,0
22.08.2019 09:00:00 17,2 11,9 - 0,0
22.08.2019 08:00:00 14,5 12,4 - 0,0
22.08.2019 07:00:00 11,7 11,3 - 0,0
22.08.2019 06:00:00 9,6 9,0 - 0,0
22.08.2019 05:00:00 10,1 9,1 - 0,0
22.08.2019 04:00:00 11,1 9,7 - 0,0
22.08.2019 03:00:00 11,4 9,6 - 0,0
22.08.2019 02:00:00 12,4 10,3 - 0,0
22.08.2019 01:00:00 12,4 10,0 - 0,0
22.08.2019 00:00:00 13,0 9,7 - 0,0
21.08.2019 23:00:00 13,0 8,9 - 0,0
21.08.2019 22:00:00 15,0 9,5 - 0,0
21.08.2019 21:00:00 16,4 9,4 - 0,0
21.08.2019 20:00:00 18,5 9,7 - 0,0
21.08.2019 19:00:00 20,3 9,4 - 0,0
21.08.2019 18:00:00 21,0 9,8 - 0,0
21.08.2019 17:00:00 22,0 9,9 - 0,0
21.08.2019 16:00:00 22,1 9,7 - 0,0
21.08.2019 15:00:00 22,5 8,5 - 0,0
21.08.2019 14:00:00 23,1 9,4 - 0,0
21.08.2019 13:00:00 21,3 9,4 - 0,0
21.08.2019 12:00:00 21,3 10,7 - 0,0
21.08.2019 11:00:00 20,7 10,9 - 0,0
21.08.2019 10:00:00 19,9 12,0 16,7 0,0
21.08.2019 09:00:00 18,0 11,7 - 0,0
21.08.2019 08:00:00 15,8 11,4 - 0,0
21.08.2019 07:00:00 12,7 11,8 - 0,0
21.08.2019 06:00:00 9,2 7,4 - 0,0
21.08.2019 05:00:00 11,2 9,6 - 0,0
21.08.2019 04:00:00 8,5 7,4 - 0,0
21.08.2019 03:00:00 8,2 7,2 - 0,0
21.08.2019 02:00:00 8,3 7,0 - 0,0
21.08.2019 01:00:00 9,0 7,2 - 0,0
21.08.2019 00:00:00 8,6 6,7 - 0,0
20.08.2019 23:00:00 10,1 7,1 - 0,0
20.08.2019 22:00:00 10,3 6,9 - 0,0
20.08.2019 21:00:00 12,6 5,6 - 0,0
20.08.2019 20:00:00 16,1 5,7 - 0,0
20.08.2019 19:00:00 18,3 6,3 - 0,0
20.08.2019 18:00:00 19,0 6,0 - 0,0
20.08.2019 17:00:00 19,2 6,4 - 0,0
20.08.2019 16:00:00 19,5 6,0 - 0,0
20.08.2019 15:00:00 20,3 6,7 - 0,0
20.08.2019 14:00:00 18,8 7,0 - 0,0
20.08.2019 13:00:00 20,2 8,3 - 0,0
20.08.2019 12:00:00 17,8 7,1 - 0,0
20.08.2019 11:00:00 17,2 9,2 - 0,0
20.08.2019 10:00:00 17,3 9,6 17,2 0,0
20.08.2019 09:00:00 15,9 11,2 - 0,0
20.08.2019 08:00:00 14,2 11,2 - 0,0
20.08.2019 07:00:00 11,9 10,2 - 0,0
20.08.2019 06:00:00 11,2 9,6 - 0,0
20.08.2019 05:00:00 10,5 9,1 - 0,0
20.08.2019 04:00:00 11,0 9,7 - 0,0
20.08.2019 03:00:00 10,6 8,6 - 0,0
20.08.2019 02:00:00 12,0 8,8 - 0,0
20.08.2019 01:00:00 12,5 8,8 - 0,0
20.08.2019 00:00:00 12,5 7,7 - 0,0
19.08.2019 23:00:00 14,1 7,8 - 0,0
19.08.2019 22:00:00 13,4 7,5 - 0,0
19.08.2019 21:00:00 15,5 7,8 - 0,0
19.08.2019 20:00:00 17,2 7,8 - 0,0
19.08.2019 19:00:00 19,5 6,9 - 0,0
19.08.2019 18:00:00 20,3 7,3 - 0,0
19.08.2019 17:00:00 20,4 8,8 - 0,0
19.08.2019 16:00:00 20,7 9,9 - 0,0
19.08.2019 15:00:00 20,5 11,2 - 0,0
19.08.2019 14:00:00 21,4 10,9 - 0,0
19.08.2019 13:00:00 21,4 11,0 - 0,0
19.08.2019 12:00:00 20,4 11,1 - 0,0
19.08.2019 11:00:00 19,1 12,3 - 0,0
19.08.2019 10:00:00 16,6 11,4 17,4 0,0
19.08.2019 09:00:00 16,5 11,8 - 0,0
19.08.2019 08:00:00 15,1 11,8 - 0,0
19.08.2019 07:00:00 13,3 11,3 - 0,0
19.08.2019 06:00:00 12,4 10,7 - 0,0
19.08.2019 05:00:00 11,9 10,5 - 0,0
19.08.2019 04:00:00 12,1 10,6 - 0,2
19.08.2019 03:00:00 12,5 10,8 - 0,0
19.08.2019 02:00:00 12,8 11,0 - 0,0
19.08.2019 01:00:00 13,2 11,4 - 0,0
19.08.2019 00:00:00 12,9 11,8 - 0,0
18.08.2019 23:00:00 13,2 11,6 - 0,0
18.08.2019 22:00:00 14,2 12,7 - 0,2
18.08.2019 21:00:00 14,5 11,9 - 1,6
18.08.2019 20:00:00 18,1 11,1 - 0,0
18.08.2019 19:00:00 19,3 8,4 - 0,0
18.08.2019 18:00:00 20,9 9,2 - 0,0
18.08.2019 17:00:00 20,5 8,9 - 0,0
18.08.2019 16:00:00 21,0 11,2 - 0,0
18.08.2019 15:00:00 19,2 10,9 - 0,0
18.08.2019 14:00:00 20,2 12,1 - 0,0
18.08.2019 13:00:00 19,3 13,3 - 0,0
18.08.2019 12:00:00 16,6 13,9 - 1,4
18.08.2019 11:00:00 16,0 11,1 - 0,0
18.08.2019 10:00:00 18,2 10,9 17,7 0,0
18.08.2019 09:00:00 16,9 12,7 - 0,0
18.08.2019 08:00:00 15,3 13,3 - 0,0
18.08.2019 07:00:00 14,6 12,8 - 0,0
18.08.2019 06:00:00 14,5 12,4 - 0,0

tt = temperature
td = dewpoint
tt -20cm = temperature -20cm
rr = precipitation

Next stations